Time,TemperatureF,DewpointF,PressureIn,WindDirection,WindDirectionDegrees,WindSpeedMPH,WindSpeedGustMPH,Humidity,HourlyPrecipIn,Conditions,Clouds,dailyrainin,SoftwareType,DateUTC
2013-02-08 00:00:00,59.2,41.1,29.20,NW,317,4.9,10.5,51,0.00,,,0.00,LWC V2.10 B1813,2013-02-08 06:00:00,
2013-02-08 00:05:00,59.0,40.9,29.20,North,7,2.2,4.0,51,0.00,,,0.00,LWC V2.10 B1813,2013-02-08 06:05:00,
2013-02-08 00:10:00,58.8,40.7,29.20,NNW,338,4.9,7.2,51,0.00,,,0.00,LWC V2.10 B1813,2013-02-08 06:10:00,
2013-02-08 00:15:00,58.8,40.7,29.20,North,0,7.2,7.2,51,0.00,,,0.00,LWC V2.10 B1813,2013-02-08 06:15:00,
2013-02-08 00:20:00,58.6,40.6,29.20,North,357,7.6,7.6,51,0.00,,,0.00,LWC V2.10 B1813,2013-02-08 06:20:00,
2013-02-08 00:25:00,58.5,40.4,29.20,North,353,5.4,5.4,51,0.00,,,0.00,LWC V2.10 B1813,2013-02-08 06:25:00,
2013-02-08 00:30:00,58.3,40.2,29.24,WNW,296,0.0,5.8,51,0.00,,,0.00,LWC V2.10 B1813,2013-02-08 06:30:00,
2013-02-08 00:35:00,58.1,40.1,29.24,North,353,2.2,4.9,51,0.00,,,0.00,LWC V2.10 B1813,2013-02-08 06:35:00,
2013-02-08 00:40:00,57.9,40.4,29.24,NW,309,4.9,7.2,52,0.00,,,0.00,LWC V2.10 B1813,2013-02-08 06:40:00,
2013-02-08 00:45:00,57.9,40.4,29.24,North,353,0.0,3.6,52,0.00,,,0.00,LWC V2.10 B1813,2013-02-08 06:45:00,
2013-02-08 00:50:00,57.7,40.2,29.24,North,353,5.4,6.3,52,0.00,,,0.00,LWC V2.10 B1813,2013-02-08 06:50:00,
2013-02-08 00:55:00,57.6,39.6,29.24,NW,312,3.1,5.8,51,0.00,,,0.00,LWC V2.10 B1813,2013-02-08 06:55:00,
2013-02-08 01:00:00,57.4,39.4,29.24,North,357,2.7,7.6,51,0.00,,,0.00,LWC V2.10 B1813,2013-02-08 07:00:00,
2013-02-08 01:05:00,57.4,39.4,29.24,North,353,3.1,11.0,51,0.00,,,0.00,LWC V2.10 B1813,2013-02-08 07:05:00,
2013-02-08 01:10:00,57.2,39.2,29.24,NNW,343,4.5,8.7,51,0.00,,,0.00,LWC V2.10 B1813,2013-02-08 07:10:00,
2013-02-08 01:15:00,57.0,39.6,29.20,NNW,339,7.6,9.2,52,0.00,,,0.00,LWC V2.10 B1813,2013-02-08 07:15:00,
2013-02-08 01:20:00,56.8,39.4,29.20,North,353,8.3,8.3,52,0.00,,,0.00,LWC V2.10 B1813,2013-02-08 07:20:00,
2013-02-08 01:25:00,56.7,39.2,29.20,NNW,343,4.5,8.1,52,0.00,,,0.00,LWC V2.10 B1813,2013-02-08 07:25:00,
2013-02-08 01:30:00,56.7,39.2,29.24,North,353,4.0,8.7,52,0.00,,,0.00,LWC V2.10 B1813,2013-02-08 07:30:00,
2013-02-08 01:35:00,56.5,39.1,29.24,NW,325,5.8,10.1,52,0.00,,,0.00,LWC V2.10 B1813,2013-02-08 07:35:00,
2013-02-08 01:40:00,56.3,39.4,29.24,NW,325,6.3,7.6,53,0.00,,,0.00,LWC V2.10 B1813,2013-02-08 07:40:00,
2013-02-08 01:45:00,56.1,39.2,29.24,NNW,346,4.0,4.0,53,0.00,,,0.00,LWC V2.10 B1813,2013-02-08 07:45:00,
2013-02-08 01:50:00,55.8,38.9,29.24,North,353,4.9,8.1,53,0.00,,,0.00,LWC V2.10 B1813,2013-02-08 07:50:00,
2013-02-08 01:55:00,55.6,39.2,29.24,North,353,4.5,6.3,54,0.00,,,0.00,LWC V2.10 B1813,2013-02-08 07:55:00,
2013-02-08 02:00:00,55.2,38.9,29.20,North,357,6.3,6.3,54,0.00,,,0.00,LWC V2.10 B1813,2013-02-08 08:00:00,
2013-02-08 02:05:00,55.0,39.2,29.20,NNW,344,8.7,10.5,55,0.00,,,0.00,LWC V2.10 B1813,2013-02-08 08:05:00,
2013-02-08 02:10:00,55.0,39.2,29.20,North,353,4.9,6.3,55,0.00,,,0.00,LWC V2.10 B1813,2013-02-08 08:10:00,
2013-02-08 02:15:00,54.7,38.8,29.24,NNW,332,8.3,8.3,55,0.00,,,0.00,LWC V2.10 B1813,2013-02-08 08:15:00,
2013-02-08 02:20:00,54.5,39.1,29.24,NNW,343,5.4,10.1,56,0.00,,,0.00,LWC V2.10 B1813,2013-02-08 08:20:00,
2013-02-08 02:25:00,54.5,39.1,29.24,NNW,329,3.1,8.3,56,0.00,,,0.00,LWC V2.10 B1813,2013-02-08 08:25:00,
2013-02-08 02:30:00,54.1,38.8,29.24,WNW,284,6.3,10.1,56,0.00,,,0.00,LWC V2.10 B1813,2013-02-08 08:30:00,
2013-02-08 02:35:00,54.0,38.6,29.24,NW,318,3.6,6.3,56,0.00,,,0.00,LWC V2.10 B1813,2013-02-08 08:35:00,
2013-02-08 02:40:00,53.8,38.9,29.24,NW,311,2.7,6.3,57,0.00,,,0.00,LWC V2.10 B1813,2013-02-08 08:40:00,
2013-02-08 02:45:00,53.6,38.7,29.24,NNW,334,5.4,8.3,57,0.00,,,0.00,LWC V2.10 B1813,2013-02-08 08:45:00,
2013-02-08 02:50:00,53.6,38.7,29.24,NE,37,5.8,5.8,57,0.00,,,0.00,LWC V2.10 B1813,2013-02-08 08:50:00,
2013-02-08 02:55:00,53.4,38.6,29.24,NNW,341,4.0,8.7,57,0.00,,,0.00,LWC V2.10 B1813,2013-02-08 08:55:00,
2013-02-08 03:00:00,53.2,38.4,29.24,NNW,340,4.0,8.1,57,0.00,,,0.00,LWC V2.10 B1813,2013-02-08 09:00:00,
2013-02-08 03:05:00,53.2,38.4,29.24,North,353,8.7,11.9,57,0.00,,,0.00,LWC V2.10 B1813,2013-02-08 09:05:00,
2013-02-08 03:10:00,53.1,37.8,29.24,North,10,5.8,9.2,56,0.00,,,0.00,LWC V2.10 B1813,2013-02-08 09:10:00,
2013-02-08 03:15:00,53.1,37.8,29.24,WNW,295,5.4,8.1,56,0.00,,,0.00,LWC V2.10 B1813,2013-02-08 09:15:00,
2013-02-08 03:20:00,52.9,37.6,29.24,North,0,5.4,8.1,56,0.00,,,0.00,LWC V2.10 B1813,2013-02-08 09:20:00,
2013-02-08 03:25:00,52.7,37.0,29.24,North,0,8.1,12.3,55,0.00,,,0.00,LWC V2.10 B1813,2013-02-08 09:25:00,
2013-02-08 03:30:00,52.5,36.8,29.24,NNW,335,15.4,15.4,55,0.00,,,0.00,LWC V2.10 B1813,2013-02-08 09:30:00,
2013-02-08 03:35:00,52.3,36.7,29.24,NW,320,3.6,6.3,55,0.00,,,0.00,LWC V2.10 B1813,2013-02-08 09:35:00,
2013-02-08 03:40:00,52.2,36.5,29.24,NNW,344,5.8,6.3,55,0.00,,,0.00,LWC V2.10 B1813,2013-02-08 09:40:00,
2013-02-08 03:45:00,52.0,35.9,29.24,North,357,14.1,14.1,54,0.00,,,0.00,LWC V2.10 B1813,2013-02-08 09:45:00,
2013-02-08 03:50:00,52.0,35.9,29.24,NNW,328,6.3,12.8,54,0.00,,,0.00,LWC V2.10 B1813,2013-02-08 09:50:00,
2013-02-08 03:55:00,52.0,35.9,29.24,North,357,3.6,7.2,54,0.00,,,0.00,LWC V2.10 B1813,2013-02-08 09:55:00,
2013-02-08 04:00:00,51.8,35.7,29.24,ENE,57,3.1,8.1,54,0.00,,,0.00,LWC V2.10 B1813,2013-02-08 10:00:00,
2013-02-08 04:05:00,51.6,35.5,29.24,NNE,31,4.0,5.8,54,0.00,,,0.00,LWC V2.10 B1813,2013-02-08 10:05:00,
2013-02-08 04:10:00,51.6,35.5,29.24,NNW,333,8.3,8.3,54,0.00,,,0.00,LWC V2.10 B1813,2013-02-08 10:10:00,
2013-02-08 04:15:00,51.4,35.4,29.24,NNE,19,2.2,7.2,54,0.00,,,0.00,LWC V2.10 B1813,2013-02-08 10:15:00,
2013-02-08 04:20:00,51.3,35.2,29.24,NW,320,3.1,5.8,54,0.00,,,0.00,LWC V2.10 B1813,2013-02-08 10:20:00,
2013-02-08 04:25:00,51.4,35.4,29.24,NNW,339,11.0,11.9,54,0.00,,,0.00,LWC V2.10 B1813,2013-02-08 10:25:00,
2013-02-08 04:30:00,51.4,35.4,29.24,NNW,343,5.8,11.0,54,0.00,,,0.00,LWC V2.10 B1813,2013-02-08 10:30:00,
2013-02-08 04:35:00,51.3,35.2,29.24,NNW,338,6.3,8.1,54,0.00,,,0.00,LWC V2.10 B1813,2013-02-08 10:35:00,
2013-02-08 04:40:00,51.1,35.0,29.24,NW,321,4.0,8.1,54,0.00,,,0.00,LWC V2.10 B1813,2013-02-08 10:40:00,
2013-02-08 04:45:00,50.9,34.9,29.24,NW,319,6.3,8.3,54,0.00,,,0.00,LWC V2.10 B1813,2013-02-08 10:45:00,
2013-02-08 04:50:00,50.9,34.9,29.24,NNW,337,8.7,13.2,54,0.00,,,0.00,LWC V2.10 B1813,2013-02-08 10:50:00,
2013-02-08 04:55:00,50.9,34.9,29.24,NNW,348,8.7,8.7,54,0.00,,,0.00,LWC V2.10 B1813,2013-02-08 10:55:00,
2013-02-08 05:00:00,50.7,34.7,29.24,NW,325,10.5,10.5,54,0.00,,,0.00,LWC V2.10 B1813,2013-02-08 11:00:00,
2013-02-08 05:05:00,50.7,34.7,29.24,North,0,8.1,13.2,54,0.00,,,0.00,LWC V2.10 B1813,2013-02-08 11:05:00,
2013-02-08 05:10:00,50.5,34.5,29.24,NNW,330,7.2,8.3,54,0.00,,,0.00,LWC V2.10 B1813,2013-02-08 11:10:00,
2013-02-08 05:15:00,50.4,34.4,29.24,NNW,338,3.6,5.4,54,0.00,,,0.00,LWC V2.10 B1813,2013-02-08 11:15:00,
2013-02-08 05:20:00,50.2,34.2,29.24,North,353,3.6,6.3,54,0.00,,,0.00,LWC V2.10 B1813,2013-02-08 11:20:00,
2013-02-08 05:25:00,50.2,34.2,29.24,NNW,335,4.9,8.7,54,0.00,,,0.00,LWC V2.10 B1813,2013-02-08 11:25:00,
2013-02-08 05:30:00,50.0,34.0,29.24,North,357,7.6,7.6,54,0.00,,,0.00,LWC V2.10 B1813,2013-02-08 11:30:00,
2013-02-08 05:35:00,50.0,34.0,29.24,NNW,348,10.5,11.0,54,0.00,,,0.00,LWC V2.10 B1813,2013-02-08 11:35:00,
2013-02-08 05:40:00,49.8,34.3,29.24,NNE,17,5.4,10.1,55,0.00,,,0.00,LWC V2.10 B1813,2013-02-08 11:40:00,
2013-02-08 05:45:00,50.0,34.0,29.26,NW,322,3.1,8.3,54,0.00,,,0.00,LWC V2.10 B1813,2013-02-08 11:45:00,
2013-02-08 05:50:00,49.8,34.3,29.26,NW,325,5.4,8.1,55,0.00,,,0.00,LWC V2.10 B1813,2013-02-08 11:50:00,
2013-02-08 05:55:00,49.6,34.1,29.26,NW,313,6.3,10.1,55,0.00,,,0.00,LWC V2.10 B1813,2013-02-08 11:55:00,
2013-02-08 06:00:00,49.6,34.1,29.26,North,5,6.3,8.1,55,0.00,,,0.00,LWC V2.10 B1813,2013-02-08 12:00:00,
2013-02-08 06:05:00,49.6,34.1,29.26,WNW,292,2.7,8.7,55,0.00,,,0.00,LWC V2.10 B1813,2013-02-08 12:05:00,
2013-02-08 06:10:00,49.6,34.1,29.26,North,353,7.6,8.3,55,0.00,,,0.00,LWC V2.10 B1813,2013-02-08 12:10:00,
2013-02-08 06:15:00,49.6,34.1,29.26,NNW,330,3.6,5.8,55,0.00,,,0.00,LWC V2.10 B1813,2013-02-08 12:15:00,
2013-02-08 06:20:00,49.5,33.5,29.26,NNW,337,4.0,8.1,54,0.00,,,0.00,LWC V2.10 B1813,2013-02-08 12:20:00,
2013-02-08 06:25:00,49.5,33.5,29.26,NW,322,5.4,5.4,54,0.00,,,0.00,LWC V2.10 B1813,2013-02-08 12:25:00,
2013-02-08 06:30:00,49.5,33.5,29.29,NNW,346,2.2,4.9,54,0.00,,,0.00,LWC V2.10 B1813,2013-02-08 12:30:00,
2013-02-08 06:35:00,49.3,33.3,29.29,NNW,333,2.7,5.8,54,0.00,,,0.00,LWC V2.10 B1813,2013-02-08 12:35:00,
2013-02-08 06:40:00,49.3,33.3,29.29,NNW,328,4.5,8.1,54,0.00,,,0.00,LWC V2.10 B1813,2013-02-08 12:40:00,
2013-02-08 06:45:00,49.1,33.2,29.29,North,10,3.1,5.8,54,0.00,,,0.00,LWC V2.10 B1813,2013-02-08 12:45:00,
2013-02-08 06:50:00,48.9,33.0,29.29,NW,318,2.7,5.4,54,0.00,,,0.00,LWC V2.10 B1813,2013-02-08 12:50:00,
2013-02-08 06:55:00,48.7,32.8,29.29,North,357,2.7,4.0,54,0.00,,,0.00,LWC V2.10 B1813,2013-02-08 12:55:00,
2013-02-08 07:00:00,48.7,32.8,29.29,NNW,341,4.9,7.6,54,0.00,,,0.00,LWC V2.10 B1813,2013-02-08 13:00:00,
2013-02-08 07:05:00,48.7,32.8,29.29,WNW,299,2.7,10.1,54,0.00,,,0.00,LWC V2.10 B1813,2013-02-08 13:05:00,
2013-02-08 07:10:00,48.7,32.8,29.29,NNE,16,3.6,4.5,54,0.00,,,0.00,LWC V2.10 B1813,2013-02-08 13:10:00,
2013-02-08 07:15:00,48.7,32.8,29.29,NW,316,0.0,3.1,54,0.00,,,0.00,LWC V2.10 B1813,2013-02-08 13:15:00,
2013-02-08 07:20:00,48.4,33.0,29.29,NNW,341,0.0,0.0,55,0.00,,,0.00,LWC V2.10 B1813,2013-02-08 13:20:00,
2013-02-08 07:25:00,48.4,33.0,29.29,West,261,0.0,4.0,55,0.00,,,0.00,LWC V2.10 B1813,2013-02-08 13:25:00,
2013-02-08 07:30:00,48.2,32.8,29.29,NNW,329,0.0,0.0,55,0.00,,,0.00,LWC V2.10 B1813,2013-02-08 13:30:00,
2013-02-08 07:35:00,48.0,33.1,29.29,West,273,0.0,2.7,56,0.00,,,0.00,LWC V2.10 B1813,2013-02-08 13:35:00,
2013-02-08 07:40:00,48.0,33.1,29.29,NW,306,3.1,3.1,56,0.00,,,0.00,LWC V2.10 B1813,2013-02-08 13:40:00,
2013-02-08 07:45:00,48.2,33.2,29.29,NW,308,0.0,5.4,56,0.00,,,0.00,LWC V2.10 B1813,2013-02-08 13:45:00,
2013-02-08 07:50:00,48.2,33.2,29.29,West,263,2.7,2.7,56,0.00,,,0.00,LWC V2.10 B1813,2013-02-08 13:50:00,
2013-02-08 07:55:00,48.4,33.0,29.29,NW,315,4.0,4.0,55,0.00,,,0.00,LWC V2.10 B1813,2013-02-08 13:55:00,
2013-02-08 08:00:00,48.7,33.3,29.32,WNW,302,3.1,5.8,55,0.00,,,0.00,LWC V2.10 B1813,2013-02-08 14:00:00,
2013-02-08 08:05:00,48.9,33.5,29.32,NNW,334,2.7,4.5,55,0.00,,,0.00,LWC V2.10 B1813,2013-02-08 14:05:00,
2013-02-08 08:10:00,49.1,33.2,29.32,NW,310,0.0,3.6,54,0.00,,,0.00,LWC V2.10 B1813,2013-02-08 14:10:00,
2013-02-08 08:15:00,49.5,33.5,29.32,NW,319,2.7,3.1,54,0.00,,,0.00,LWC V2.10 B1813,2013-02-08 14:15:00,
2013-02-08 08:20:00,49.6,33.2,29.32,NW,325,3.1,4.0,53,0.00,,,0.00,LWC V2.10 B1813,2013-02-08 14:20:00,
2013-02-08 08:25:00,49.8,33.4,29.32,NNE,24,2.7,3.1,53,0.00,,,0.00,LWC V2.10 B1813,2013-02-08 14:25:00,
2013-02-08 08:30:00,50.2,33.2,29.32,WNW,284,0.0,0.0,52,0.00,,,0.00,LWC V2.10 B1813,2013-02-08 14:30:00,
2013-02-08 08:35:00,50.5,33.6,29.32,NW,314,0.0,0.0,52,0.00,,,0.00,LWC V2.10 B1813,2013-02-08 14:35:00,
2013-02-08 08:40:00,50.7,33.3,29.32,North,1,2.2,4.5,51,0.00,,,0.00,LWC V2.10 B1813,2013-02-08 14:40:00,
2013-02-08 08:45:00,51.3,33.8,29.32,NNW,341,0.0,6.3,51,0.00,,,0.00,LWC V2.10 B1813,2013-02-08 14:45:00,
2013-02-08 08:50:00,51.6,33.6,29.32,NW,315,2.2,3.6,50,0.00,,,0.00,LWC V2.10 B1813,2013-02-08 14:50:00,
2013-02-08 08:55:00,51.8,33.3,29.32,NNE,15,4.0,4.0,49,0.00,,,0.00,LWC V2.10 B1813,2013-02-08 14:55:00,
2013-02-08 09:00:00,52.2,33.6,29.35,North,7,0.0,2.7,49,0.00,,,0.00,LWC V2.10 B1813,2013-02-08 15:00:00,
2013-02-08 09:05:00,52.5,33.4,29.35,NNW,337,6.3,7.2,48,0.00,,,0.00,LWC V2.10 B1813,2013-02-08 15:05:00,
2013-02-08 09:10:00,52.7,33.6,29.35,NNE,14,3.1,9.2,48,0.00,,,0.00,LWC V2.10 B1813,2013-02-08 15:10:00,
2013-02-08 09:15:00,53.1,33.9,29.32,NW,321,5.4,6.3,48,0.00,,,0.00,LWC V2.10 B1813,2013-02-08 15:15:00,
2013-02-08 09:20:00,53.4,34.2,29.32,WNW,289,2.2,3.6,48,0.00,,,0.00,LWC V2.10 B1813,2013-02-08 15:20:00,
2013-02-08 09:25:00,54.3,34.5,29.32,NNE,14,2.2,4.0,47,0.00,,,0.00,LWC V2.10 B1813,2013-02-08 15:25:00,
2013-02-08 09:30:00,54.5,34.7,29.35,NNW,335,3.6,6.7,47,0.00,,,0.00,LWC V2.10 B1813,2013-02-08 15:30:00,
2013-02-08 09:35:00,54.9,34.5,29.35,North,353,4.0,7.6,46,0.00,,,0.00,LWC V2.10 B1813,2013-02-08 15:35:00,
2013-02-08 09:40:00,55.0,34.6,29.35,North,353,7.2,7.2,46,0.00,,,0.00,LWC V2.10 B1813,2013-02-08 15:40:00,
2013-02-08 09:45:00,55.4,34.4,29.35,NNW,328,2.7,5.8,45,0.00,,,0.00,LWC V2.10 B1813,2013-02-08 15:45:00,
2013-02-08 09:50:00,56.1,35.1,29.35,North,11,6.3,7.2,45,0.00,,,0.00,LWC V2.10 B1813,2013-02-08 15:50:00,
2013-02-08 09:55:00,56.5,35.4,29.35,ENE,75,4.0,5.8,45,0.00,,,0.00,LWC V2.10 B1813,2013-02-08 15:55:00,
2013-02-08 10:00:00,57.4,35.6,29.35,North,8,2.7,3.6,44,0.00,,,0.00,LWC V2.10 B1813,2013-02-08 16:00:00,
2013-02-08 10:05:00,57.6,35.2,29.35,East,82,2.2,8.1,43,0.00,,,0.00,LWC V2.10 B1813,2013-02-08 16:05:00,
2013-02-08 10:10:00,57.6,35.2,29.35,North,0,3.6,4.0,43,0.00,,,0.00,LWC V2.10 B1813,2013-02-08 16:10:00,
2013-02-08 10:15:00,58.1,35.1,29.35,NE,41,5.4,6.3,42,0.00,,,0.00,LWC V2.10 B1813,2013-02-08 16:15:00,
2013-02-08 10:20:00,58.3,35.3,29.35,North,357,4.0,5.8,42,0.00,,,0.00,LWC V2.10 B1813,2013-02-08 16:20:00,
2013-02-08 10:25:00,58.3,35.3,29.35,North,357,4.0,5.8,42,0.00,,,0.00,LWC V2.10 B1813,2013-02-08 16:25:00,
2013-02-08 10:30:00,58.5,34.8,29.35,NNE,33,5.4,9.6,41,0.00,,,0.00,LWC V2.10 B1813,2013-02-08 16:30:00,
2013-02-08 10:35:00,58.5,34.8,29.35,North,353,3.6,6.3,41,0.00,,,0.00,LWC V2.10 B1813,2013-02-08 16:35:00,
2013-02-08 10:40:00,59.2,34.9,29.35,NE,43,6.3,6.3,40,0.00,,,0.00,LWC V2.10 B1813,2013-02-08 16:40:00,
2013-02-08 10:45:00,59.5,35.2,29.35,NE,35,4.0,5.4,40,0.00,,,0.00,LWC V2.10 B1813,2013-02-08 16:45:00,
2013-02-08 10:50:00,59.4,34.4,29.35,North,357,6.3,8.7,39,0.00,,,0.00,LWC V2.10 B1813,2013-02-08 16:50:00,
2013-02-08 10:55:00,59.7,34.7,29.35,North,357,8.1,8.1,39,0.00,,,0.00,LWC V2.10 B1813,2013-02-08 16:55:00,
2013-02-08 11:00:00,59.7,34.7,29.35,North,357,3.6,5.4,39,0.00,,,0.00,LWC V2.10 B1813,2013-02-08 17:00:00,
2013-02-08 11:05:00,60.1,34.4,29.35,NE,43,2.7,6.3,38,0.00,,,0.00,LWC V2.10 B1813,2013-02-08 17:05:00,
2013-02-08 11:10:00,60.8,35.0,29.35,NNE,15,3.6,6.3,38,0.00,,,0.00,LWC V2.10 B1813,2013-02-08 17:10:00,
2013-02-08 11:15:00,61.0,35.2,29.32,North,357,4.0,4.0,38,0.00,,,0.00,LWC V2.10 B1813,2013-02-08 17:15:00,
2013-02-08 11:20:00,61.2,34.7,29.32,North,350,3.6,5.4,37,0.00,,,0.00,LWC V2.10 B1813,2013-02-08 17:20:00,
2013-02-08 11:25:00,61.2,34.7,29.32,NNE,29,4.0,8.3,37,0.00,,,0.00,LWC V2.10 B1813,2013-02-08 17:25:00,
2013-02-08 11:30:00,62.1,35.5,29.32,NW,322,3.1,4.0,37,0.00,,,0.00,LWC V2.10 B1813,2013-02-08 17:30:00,
2013-02-08 11:35:00,62.4,35.8,29.32,NNE,15,4.9,8.3,37,0.00,,,0.00,LWC V2.10 B1813,2013-02-08 17:35:00,
2013-02-08 11:40:00,62.6,35.3,29.32,NE,45,4.0,8.3,36,0.00,,,0.00,LWC V2.10 B1813,2013-02-08 17:40:00,
2013-02-08 11:45:00,62.8,35.4,29.32,NNE,24,5.8,5.8,36,0.00,,,0.00,LWC V2.10 B1813,2013-02-08 17:45:00,
2013-02-08 11:50:00,63.0,35.6,29.32,North,357,4.0,5.4,36,0.00,,,0.00,LWC V2.10 B1813,2013-02-08 17:50:00,
2013-02-08 11:55:00,63.5,35.4,29.32,NNE,18,3.1,7.6,35,0.00,,,0.00,LWC V2.10 B1813,2013-02-08 17:55:00,
2013-02-08 12:00:00,63.7,35.5,29.32,North,8,7.6,10.1,35,0.00,,,0.00,LWC V2.10 B1813,2013-02-08 18:00:00,
2013-02-08 12:05:00,63.5,35.4,29.32,NE,36,5.8,5.8,35,0.00,,,0.00,LWC V2.10 B1813,2013-02-08 18:05:00,
2013-02-08 12:10:00,63.7,34.8,29.32,North,0,0.0,7.6,34,0.00,,,0.00,LWC V2.10 B1813,2013-02-08 18:10:00,
2013-02-08 12:15:00,64.4,35.4,29.32,ENE,61,3.1,6.3,34,0.00,,,0.00,LWC V2.10 B1813,2013-02-08 18:15:00,
2013-02-08 12:20:00,64.4,34.7,29.32,NNE,24,3.6,8.7,33,0.00,,,0.00,LWC V2.10 B1813,2013-02-08 18:20:00,
2013-02-08 12:25:00,64.8,35.0,29.32,ENE,65,3.1,6.3,33,0.00,,,0.00,LWC V2.10 B1813,2013-02-08 18:25:00,
2013-02-08 12:30:00,64.8,35.0,29.32,NE,52,2.7,5.4,33,0.00,,,0.00,LWC V2.10 B1813,2013-02-08 18:30:00,
2013-02-08 12:35:00,64.9,35.1,29.32,North,9,3.6,8.3,33,0.00,,,0.00,LWC V2.10 B1813,2013-02-08 18:35:00,
2013-02-08 12:40:00,64.9,34.4,29.32,North,4,5.4,8.7,32,0.00,,,0.00,LWC V2.10 B1813,2013-02-08 18:40:00,
2013-02-08 12:45:00,65.5,34.8,29.29,North,10,4.0,10.1,32,0.00,,,0.00,LWC V2.10 B1813,2013-02-08 18:45:00,
2013-02-08 12:50:00,65.7,35.0,29.29,NNE,24,2.2,4.0,32,0.00,,,0.00,LWC V2.10 B1813,2013-02-08 18:50:00,
2013-02-08 12:55:00,66.6,34.2,29.29,NNE,22,8.3,8.3,30,0.00,,,0.00,LWC V2.10 B1813,2013-02-08 18:55:00,
2013-02-08 13:00:00,66.2,34.7,29.29,North,5,5.8,5.8,31,0.00,,,0.00,LWC V2.10 B1813,2013-02-08 19:00:00,
2013-02-08 13:05:00,66.2,33.8,29.29,NNW,340,7.6,8.7,30,0.00,,,0.00,LWC V2.10 B1813,2013-02-08 19:05:00,
2013-02-08 13:10:00,66.2,32.1,29.29,NE,52,6.3,10.5,28,0.00,,,0.00,LWC V2.10 B1813,2013-02-08 19:10:00,
2013-02-08 13:15:00,66.2,32.1,29.29,NE,55,8.7,8.7,28,0.00,,,0.00,LWC V2.10 B1813,2013-02-08 19:15:00,
2013-02-08 13:20:00,66.6,32.4,29.29,East,87,3.1,7.2,28,0.00,,,0.00,LWC V2.10 B1813,2013-02-08 19:20:00,
2013-02-08 13:25:00,66.6,32.4,29.29,North,353,7.6,7.6,28,0.00,,,0.00,LWC V2.10 B1813,2013-02-08 19:25:00,
2013-02-08 13:30:00,67.1,32.9,29.26,North,9,4.0,4.0,28,0.00,,,0.00,LWC V2.10 B1813,2013-02-08 19:30:00,
2013-02-08 13:35:00,67.3,33.1,29.26,NE,49,2.7,5.4,28,0.00,,,0.00,LWC V2.10 B1813,2013-02-08 19:35:00,
2013-02-08 13:40:00,67.5,32.3,29.26,NE,47,2.7,4.9,27,0.00,,,0.00,LWC V2.10 B1813,2013-02-08 19:40:00,
2013-02-08 13:45:00,67.1,32.0,29.26,NE,50,6.3,8.3,27,0.00,,,0.00,LWC V2.10 B1813,2013-02-08 19:45:00,
2013-02-08 13:50:00,67.3,31.2,29.26,ENE,62,8.7,8.7,26,0.00,,,0.00,LWC V2.10 B1813,2013-02-08 19:50:00,
2013-02-08 13:55:00,67.3,31.2,29.26,ENE,68,4.9,6.3,26,0.00,,,0.00,LWC V2.10 B1813,2013-02-08 19:55:00,
2013-02-08 14:00:00,66.9,28.9,29.26,ENE,75,3.1,8.1,24,0.00,,,0.00,LWC V2.10 B1813,2013-02-08 20:00:00,
2013-02-08 14:05:00,67.3,30.3,29.26,ENE,77,4.0,7.2,25,0.00,,,0.00,LWC V2.10 B1813,2013-02-08 20:05:00,
2013-02-08 14:10:00,68.0,30.9,29.26,ESE,119,4.0,6.3,25,0.00,,,0.00,LWC V2.10 B1813,2013-02-08 20:10:00,
2013-02-08 14:15:00,68.0,29.9,29.26,North,353,3.6,5.4,24,0.00,,,0.00,LWC V2.10 B1813,2013-02-08 20:15:00,
2013-02-08 14:20:00,67.5,29.4,29.26,NNE,13,4.9,5.4,24,0.00,,,0.00,LWC V2.10 B1813,2013-02-08 20:20:00,
2013-02-08 14:25:00,67.8,29.7,29.26,NE,53,5.4,8.3,24,0.00,,,0.00,LWC V2.10 B1813,2013-02-08 20:25:00,
2013-02-08 14:30:00,67.8,29.7,29.26,North,0,7.6,7.6,24,0.00,,,0.00,LWC V2.10 B1813,2013-02-08 20:30:00,
2013-02-08 14:35:00,67.6,28.5,29.26,NE,34,2.7,5.4,23,0.00,,,0.00,LWC V2.10 B1813,2013-02-08 20:35:00,
2013-02-08 14:40:00,67.5,29.4,29.26,North,0,3.1,4.0,24,0.00,,,0.00,LWC V2.10 B1813,2013-02-08 20:40:00,
2013-02-08 14:45:00,67.5,28.4,29.26,North,6,6.3,6.3,23,0.00,,,0.00,LWC V2.10 B1813,2013-02-08 20:45:00,
2013-02-08 14:50:00,67.5,28.4,29.26,NNW,348,4.0,5.8,23,0.00,,,0.00,LWC V2.10 B1813,2013-02-08 20:50:00,
2013-02-08 14:55:00,67.6,28.5,29.26,NE,53,4.9,6.3,23,0.00,,,0.00,LWC V2.10 B1813,2013-02-08 20:55:00,
2013-02-08 15:00:00,67.5,28.4,29.24,NNE,29,7.6,8.7,23,0.00,,,0.00,LWC V2.10 B1813,2013-02-08 21:00:00,
2013-02-08 15:05:00,67.6,28.5,29.24,North,2,2.2,5.4,23,0.00,,,0.00,LWC V2.10 B1813,2013-02-08 21:05:00,
2013-02-08 15:10:00,68.4,29.1,29.24,NNE,21,2.7,4.9,23,0.00,,,0.00,LWC V2.10 B1813,2013-02-08 21:10:00,
2013-02-08 15:15:00,68.5,29.3,29.24,NE,51,3.1,3.1,23,0.00,,,0.00,LWC V2.10 B1813,2013-02-08 21:15:00,
2013-02-08 15:20:00,68.7,29.4,29.24,NNE,25,5.4,6.3,23,0.00,,,0.00,LWC V2.10 B1813,2013-02-08 21:20:00,
2013-02-08 15:25:00,68.5,29.3,29.24,NE,47,3.6,6.3,23,0.00,,,0.00,LWC V2.10 B1813,2013-02-08 21:25:00,
2013-02-08 15:30:00,68.2,27.9,29.24,North,10,0.0,5.4,22,0.00,,,0.00,LWC V2.10 B1813,2013-02-08 21:30:00,
2013-02-08 15:35:00,68.4,28.0,29.24,NE,41,4.9,7.6,22,0.00,,,0.00,LWC V2.10 B1813,2013-02-08 21:35:00,
2013-02-08 15:40:00,68.0,27.7,29.24,ENE,73,3.1,4.5,22,0.00,,,0.00,LWC V2.10 B1813,2013-02-08 21:40:00,
2013-02-08 15:45:00,68.2,27.9,29.24,NE,43,5.8,5.8,22,0.00,,,0.00,LWC V2.10 B1813,2013-02-08 21:45:00,
2013-02-08 15:50:00,68.4,28.0,29.24,NW,321,4.9,6.3,22,0.00,,,0.00,LWC V2.10 B1813,2013-02-08 21:50:00,
2013-02-08 15:55:00,68.2,25.6,29.24,ENE,65,5.8,6.3,20,0.00,,,0.00,LWC V2.10 B1813,2013-02-08 21:55:00,
2013-02-08 16:00:00,68.2,25.6,29.24,NNE,23,4.0,6.3,20,0.00,,,0.00,LWC V2.10 B1813,2013-02-08 22:00:00,
2013-02-08 16:05:00,67.8,25.3,29.24,NNE,25,3.6,4.0,20,0.00,,,0.00,LWC V2.10 B1813,2013-02-08 22:05:00,
2013-02-08 16:10:00,67.8,25.3,29.24,NNE,26,0.0,4.9,20,0.00,,,0.00,LWC V2.10 B1813,2013-02-08 22:10:00,
2013-02-08 16:15:00,68.0,25.4,29.24,NNE,31,2.2,4.0,20,0.00,,,0.00,LWC V2.10 B1813,2013-02-08 22:15:00,
2013-02-08 16:20:00,68.4,25.7,29.24,NE,38,5.8,6.3,20,0.00,,,0.00,LWC V2.10 B1813,2013-02-08 22:20:00,
2013-02-08 16:25:00,67.8,25.3,29.24,NE,44,3.1,6.3,20,0.00,,,0.00,LWC V2.10 B1813,2013-02-08 22:25:00,
2013-02-08 16:30:00,68.0,27.7,29.24,NE,51,2.7,4.0,22,0.00,,,0.00,LWC V2.10 B1813,2013-02-08 22:30:00,
2013-02-08 16:35:00,67.8,27.6,29.24,NE,52,3.6,4.0,22,0.00,,,0.00,LWC V2.10 B1813,2013-02-08 22:35:00,
2013-02-08 16:40:00,68.2,27.9,29.24,NE,35,4.0,4.0,22,0.00,,,0.00,LWC V2.10 B1813,2013-02-08 22:40:00,
2013-02-08 16:45:00,67.8,28.7,29.20,East,91,3.6,5.8,23,0.00,,,0.00,LWC V2.10 B1813,2013-02-08 22:45:00,
2013-02-08 16:50:00,67.5,27.3,29.20,East,84,4.0,8.7,22,0.00,,,0.00,LWC V2.10 B1813,2013-02-08 22:50:00,
2013-02-08 16:55:00,67.3,27.1,29.20,NE,42,2.7,7.2,22,0.00,,,0.00,LWC V2.10 B1813,2013-02-08 22:55:00,
2013-02-08 17:00:00,67.3,27.1,29.24,NNE,23,3.6,4.0,22,0.00,,,0.00,LWC V2.10 B1813,2013-02-08 23:00:00,
2013-02-08 17:05:00,67.1,20.8,29.24,NE,56,5.8,7.6,17,0.00,,,0.00,LWC V2.10 B1813,2013-02-08 23:05:00,
2013-02-08 17:10:00,66.6,17.5,29.24,ESE,105,6.3,6.3,15,0.00,,,0.00,LWC V2.10 B1813,2013-02-08 23:10:00,
2013-02-08 17:15:00,66.4,17.3,29.24,ENE,60,5.4,5.4,15,0.00,,,0.00,LWC V2.10 B1813,2013-02-08 23:15:00,
2013-02-08 17:20:00,66.4,17.3,29.24,NE,55,4.0,4.9,15,0.00,,,0.00,LWC V2.10 B1813,2013-02-08 23:20:00,
2013-02-08 17:25:00,66.2,17.2,29.24,ENE,74,3.1,5.4,15,0.00,,,0.00,LWC V2.10 B1813,2013-02-08 23:25:00,
2013-02-08 17:30:00,66.0,17.1,29.24,East,82,4.0,5.4,15,0.00,,,0.00,LWC V2.10 B1813,2013-02-08 23:30:00,
2013-02-08 17:35:00,65.8,21.2,29.24,NE,56,3.6,4.9,18,0.00,,,0.00,LWC V2.10 B1813,2013-02-08 23:35:00,
2013-02-08 17:40:00,65.5,16.6,29.24,ENE,57,3.6,5.8,15,0.00,,,0.00,LWC V2.10 B1813,2013-02-08 23:40:00,
2013-02-08 17:45:00,65.1,20.6,29.24,ENE,60,5.8,5.8,18,0.00,,,0.00,LWC V2.10 B1813,2013-02-08 23:45:00,
2013-02-08 17:50:00,64.6,20.1,29.24,ENE,76,4.0,4.0,18,0.00,,,0.00,LWC V2.10 B1813,2013-02-08 23:50:00,
2013-02-08 17:56:00,64.2,19.8,29.24,ENE,69,3.1,4.9,18,0.00,,,0.00,LWC V2.10 B1813,2013-02-08 23:56:00,
2013-02-08 18:01:00,63.7,23.0,29.24,ENE,62,3.1,4.0,21,0.00,,,0.00,LWC V2.10 B1813,2013-02-09 00:01:00,
2013-02-08 18:06:00,63.1,24.7,29.24,ENE,58,3.1,4.0,23,0.00,,,0.00,LWC V2.10 B1813,2013-02-09 00:06:00,
2013-02-08 18:11:00,62.6,24.3,29.24,NE,50,3.1,4.0,23,0.00,,,0.00,LWC V2.10 B1813,2013-02-09 00:11:00,
2013-02-08 18:16:00,61.9,24.7,29.24,ENE,62,3.1,3.6,24,0.00,,,0.00,LWC V2.10 B1813,2013-02-09 00:16:00,
2013-02-08 18:21:00,61.5,24.4,29.24,ENE,63,4.0,4.0,24,0.00,,,0.00,LWC V2.10 B1813,2013-02-09 00:21:00,
2013-02-08 18:26:00,61.2,24.1,29.24,ENE,73,3.1,4.0,24,0.00,,,0.00,LWC V2.10 B1813,2013-02-09 00:26:00,
2013-02-08 18:31:00,60.8,23.8,29.24,NE,54,3.1,4.9,24,0.00,,,0.00,LWC V2.10 B1813,2013-02-09 00:31:00,
2013-02-08 18:36:00,60.4,24.5,29.24,NE,55,3.1,4.0,25,0.00,,,0.00,LWC V2.10 B1813,2013-02-09 00:36:00,
2013-02-08 18:41:00,60.1,24.2,29.24,ENE,75,4.0,4.0,25,0.00,,,0.00,LWC V2.10 B1813,2013-02-09 00:41:00,
2013-02-08 18:46:00,59.9,24.0,29.24,ENE,72,3.6,4.9,25,0.00,,,0.00,LWC V2.10 B1813,2013-02-09 00:46:00,
2013-02-08 18:51:00,59.7,23.8,29.24,ENE,72,4.9,4.9,25,0.00,,,0.00,LWC V2.10 B1813,2013-02-09 00:51:00,
2013-02-08 18:56:00,59.5,23.7,29.24,NE,49,2.7,4.9,25,0.00,,,0.00,LWC V2.10 B1813,2013-02-09 00:56:00,
2013-02-08 19:01:00,59.4,23.5,29.24,ENE,68,3.1,4.9,25,0.00,,,0.00,LWC V2.10 B1813,2013-02-09 01:01:00,
2013-02-08 19:06:00,59.4,23.5,29.24,ENE,60,4.0,5.8,25,0.00,,,0.00,LWC V2.10 B1813,2013-02-09 01:06:00,
2013-02-08 19:11:00,59.2,23.4,29.24,ENE,66,4.0,4.9,25,0.00,,,0.00,LWC V2.10 B1813,2013-02-09 01:11:00,
2013-02-08 19:16:00,59.0,23.2,29.24,ENE,64,4.0,5.4,25,0.00,,,0.00,LWC V2.10 B1813,2013-02-09 01:16:00,
2013-02-08 19:21:00,59.0,23.2,29.24,ENE,59,3.1,4.0,25,0.00,,,0.00,LWC V2.10 B1813,2013-02-09 01:21:00,
2013-02-08 19:26:00,58.8,23.1,29.24,ENE,59,3.6,6.3,25,0.00,,,0.00,LWC V2.10 B1813,2013-02-09 01:26:00,
2013-02-08 19:31:00,58.8,24.0,29.20,East,84,4.9,5.4,26,0.00,,,0.00,LWC V2.10 B1813,2013-02-09 01:31:00,
2013-02-08 19:36:00,58.5,23.7,29.20,ENE,58,3.6,5.8,26,0.00,,,0.00,LWC V2.10 B1813,2013-02-09 01:36:00,
2013-02-08 19:41:00,58.3,23.6,29.20,ENE,77,5.4,5.8,26,0.00,,,0.00,LWC V2.10 B1813,2013-02-09 01:41:00,
2013-02-08 19:46:00,58.3,23.6,29.20,ENE,57,3.6,5.8,26,0.00,,,0.00,LWC V2.10 B1813,2013-02-09 01:46:00,
2013-02-08 19:51:00,58.1,23.4,29.20,ENE,71,4.5,5.8,26,0.00,,,0.00,LWC V2.10 B1813,2013-02-09 01:51:00,
2013-02-08 19:56:00,57.9,23.2,29.20,NE,56,4.9,4.9,26,0.00,,,0.00,LWC V2.10 B1813,2013-02-09 01:56:00,
2013-02-08 20:01:00,57.9,23.2,29.20,ENE,68,4.9,6.3,26,0.00,,,0.00,LWC V2.10 B1813,2013-02-09 02:01:00,
2013-02-08 20:06:00,57.9,24.1,29.20,ENE,75,4.0,5.8,27,0.00,,,0.00,LWC V2.10 B1813,2013-02-09 02:06:00,
2013-02-08 20:11:00,57.9,24.1,29.20,ENE,75,4.9,5.4,27,0.00,,,0.00,LWC V2.10 B1813,2013-02-09 02:11:00,
2013-02-08 20:16:00,57.9,24.1,29.20,ENE,70,3.6,6.3,27,0.00,,,0.00,LWC V2.10 B1813,2013-02-09 02:16:00,
2013-02-08 20:21:00,57.7,24.0,29.20,NE,49,3.1,5.8,27,0.00,,,0.00,LWC V2.10 B1813,2013-02-09 02:21:00,
2013-02-08 20:26:00,57.6,23.8,29.20,ENE,78,5.8,5.8,27,0.00,,,0.00,LWC V2.10 B1813,2013-02-09 02:26:00,
2013-02-08 20:31:00,57.6,23.8,29.20,ENE,63,4.9,4.9,27,0.00,,,0.00,LWC V2.10 B1813,2013-02-09 02:31:00,
2013-02-08 20:36:00,57.4,24.6,29.20,ENE,60,4.0,5.8,28,0.00,,,0.00,LWC V2.10 B1813,2013-02-09 02:36:00,
2013-02-08 20:41:00,57.4,24.6,29.20,ENE,75,6.3,6.3,28,0.00,,,0.00,LWC V2.10 B1813,2013-02-09 02:41:00,
2013-02-08 20:46:00,57.2,24.4,29.20,East,86,3.6,3.6,28,0.00,,,0.00,LWC V2.10 B1813,2013-02-09 02:46:00,
2013-02-08 20:51:00,57.0,25.1,29.20,ENE,74,3.6,5.8,29,0.00,,,0.00,LWC V2.10 B1813,2013-02-09 02:51:00,
2013-02-08 20:56:00,57.0,25.1,29.20,East,79,3.6,5.4,29,0.00,,,0.00,LWC V2.10 B1813,2013-02-09 02:56:00,
2013-02-08 21:01:00,56.7,24.8,29.20,East,81,3.6,5.4,29,0.00,,,0.00,LWC V2.10 B1813,2013-02-09 03:01:00,
2013-02-08 21:06:00,56.7,24.8,29.20,ENE,75,3.1,4.0,29,0.00,,,0.00,LWC V2.10 B1813,2013-02-09 03:06:00,
2013-02-08 21:11:00,56.5,24.6,29.20,ENE,57,5.8,5.8,29,0.00,,,0.00,LWC V2.10 B1813,2013-02-09 03:11:00,
2013-02-08 21:16:00,56.5,25.4,29.20,ENE,71,3.6,4.0,30,0.00,,,0.00,LWC V2.10 B1813,2013-02-09 03:16:00,
2013-02-08 21:21:00,56.3,25.3,29.20,NE,43,2.7,5.4,30,0.00,,,0.00,LWC V2.10 B1813,2013-02-09 03:21:00,
2013-02-08 21:26:00,56.3,25.3,29.20,ENE,61,4.0,5.8,30,0.00,,,0.00,LWC V2.10 B1813,2013-02-09 03:26:00,
2013-02-08 21:31:00,56.3,26.1,29.20,ENE,65,3.1,5.8,31,0.00,,,0.00,LWC V2.10 B1813,2013-02-09 03:31:00,
2013-02-08 21:36:00,56.5,26.2,29.20,ENE,78,4.0,5.8,31,0.00,,,0.00,LWC V2.10 B1813,2013-02-09 03:36:00,
2013-02-08 21:41:00,56.3,26.1,29.20,ENE,76,3.1,4.0,31,0.00,,,0.00,LWC V2.10 B1813,2013-02-09 03:41:00,
2013-02-08 21:46:00,56.3,26.1,29.24,NE,42,2.7,4.0,31,0.00,,,0.00,LWC V2.10 B1813,2013-02-09 03:46:00,
2013-02-08 21:51:00,56.1,25.9,29.24,NE,54,3.1,3.6,31,0.00,,,0.00,LWC V2.10 B1813,2013-02-09 03:51:00,
2013-02-08 21:56:00,55.9,26.5,29.24,ENE,66,5.4,5.4,32,0.00,,,0.00,LWC V2.10 B1813,2013-02-09 03:56:00,
2013-02-08 22:01:00,55.8,26.4,29.24,ENE,77,5.4,5.4,32,0.00,,,0.00,LWC V2.10 B1813,2013-02-09 04:01:00,
2013-02-08 22:06:00,55.6,26.2,29.24,East,83,4.9,6.3,32,0.00,,,0.00,LWC V2.10 B1813,2013-02-09 04:06:00,
2013-02-08 22:11:00,55.8,26.4,29.24,ENE,75,4.9,7.2,32,0.00,,,0.00,LWC V2.10 B1813,2013-02-09 04:11:00,
2013-02-08 22:16:00,55.9,27.3,29.24,ENE,78,2.7,5.8,33,0.00,,,0.00,LWC V2.10 B1813,2013-02-09 04:16:00,
2013-02-08 22:21:00,56.1,27.4,29.24,ENE,76,5.8,6.3,33,0.00,,,0.00,LWC V2.10 B1813,2013-02-09 04:21:00,
2013-02-08 22:26:00,56.3,27.6,29.24,ENE,60,3.1,5.4,33,0.00,,,0.00,LWC V2.10 B1813,2013-02-09 04:26:00,
2013-02-08 22:31:00,56.3,27.6,29.24,NE,44,3.6,6.3,33,0.00,,,0.00,LWC V2.10 B1813,2013-02-09 04:31:00,
2013-02-08 22:36:00,56.1,28.1,29.24,ENE,78,5.8,7.6,34,0.00,,,0.00,LWC V2.10 B1813,2013-02-09 04:36:00,
2013-02-08 22:41:00,56.3,28.3,29.24,ENE,58,3.1,6.7,34,0.00,,,0.00,LWC V2.10 B1813,2013-02-09 04:41:00,
2013-02-08 22:46:00,56.3,28.3,29.20,NNE,29,4.9,6.3,34,0.00,,,0.00,LWC V2.10 B1813,2013-02-09 04:46:00,
2013-02-08 22:51:00,56.1,28.8,29.20,ENE,57,2.7,3.6,35,0.00,,,0.00,LWC V2.10 B1813,2013-02-09 04:51:00,
2013-02-08 22:56:00,55.9,28.7,29.20,ENE,64,2.7,6.7,35,0.00,,,0.00,LWC V2.10 B1813,2013-02-09 04:56:00,
2013-02-08 23:00:00,55.8,28.5,29.20,ENE,59,3.6,4.9,35,0.00,,,0.00,LWC V2.10 B1813,2013-02-09 05:00:00,
2013-02-08 23:05:00,55.6,28.4,29.20,ENE,77,5.4,5.8,35,0.00,,,0.00,LWC V2.10 B1813,2013-02-09 05:05:00,
2013-02-08 23:10:00,55.6,28.4,29.20,NNE,27,3.1,5.4,35,0.00,,,0.00,LWC V2.10 B1813,2013-02-09 05:10:00,
2013-02-08 23:15:00,55.4,28.2,29.20,NE,56,4.0,5.4,35,0.00,,,0.00,LWC V2.10 B1813,2013-02-09 05:15:00,
2013-02-08 23:20:00,55.4,28.2,29.20,ENE,71,2.7,5.8,35,0.00,,,0.00,LWC V2.10 B1813,2013-02-09 05:20:00,
2013-02-08 23:25:00,55.6,29.1,29.20,ENE,63,3.6,6.7,36,0.00,,,0.00,LWC V2.10 B1813,2013-02-09 05:25:00,
2013-02-08 23:30:00,55.6,29.1,29.20,ENE,68,4.9,6.3,36,0.00,,,0.00,LWC V2.10 B1813,2013-02-09 05:30:00,
2013-02-08 23:35:00,55.6,29.1,29.20,NE,44,6.3,6.3,36,0.00,,,0.00,LWC V2.10 B1813,2013-02-09 05:35:00,
2013-02-08 23:40:00,55.6,29.1,29.20,ENE,63,5.8,7.6,36,0.00,,,0.00,LWC V2.10 B1813,2013-02-09 05:40:00,
2013-02-08 23:45:00,55.8,29.2,29.20,NE,49,5.4,5.8,36,0.00,,,0.00,LWC V2.10 B1813,2013-02-09 05:45:00,
2013-02-08 23:50:00,55.6,29.7,29.20,ENE,59,3.1,6.3,37,0.00,,,0.00,LWC V2.10 B1813,2013-02-09 05:50:00,
2013-02-08 23:55:00,55.6,29.7,29.20,ENE,60,4.9,6.3,37,0.00,,,0.00,LWC V2.10 B1813,2013-02-09 05:55:00,